Preview of NWS' New Version of Forecast
This preview is not operational and should not be used for support decisions.

Regional Weather Roundup (RWR)

Issued by National Weather Service (NWS)

                            
000
ASUS44 KMEG 192210
RWRTN 
TENNESSEE HOURLY STATE WEATHER ROUNDUP
NATIONAL WEATHER SERVICE MEMPHIS TN
500 PM CDT WED JUN 19 2019

TNZ002-004-019-021-049-052-054-088>092-192300-
WEST TENNESSEE
  
CITY           SKY/WX    TMP DP  RH WIND       PRES   REMARKS
MEMPHIS INTL   FAIR      90  70  51 SW13G22   29.70F HX  95           
NWS MEMPHIS      N/A    N/A N/A N/A MISG        N/A                   
JACKSON        FAIR      88  72  58 SW16G29   29.69F HX  94           
DYERSBURG      FAIR      89  72  56 SW18G24   29.67F HX  96           
COVINGTON      SUNNY     90  70  51 SW17G25   29.67F HX  95           
UNION CITY     PTSUNNY   77  72  83 CALM      29.66S                  
BOLIVAR        PTSUNNY   88  72  58 S10G18    29.71S HX  94           
PARIS          MOSUNNY   79  73  83 N6        29.68S                  
HUNTINGDON     SUNNY     86  72  62 SW6G13    29.67F HX  92           
LEXINGTON      MOSUNNY   88  70  55 SW13G24   29.69F HX  92           
SELMER         SUNNY     86  72  62 SW8G17    29.72S HX  92           
SAVANNAH       SUNNY     90  72  55 SW15      29.71F HX  96           
$$

TNZ008-025-027-028-033-062-065-066-192300-
NORTH MIDDLE TENNESSEE
  
CITY           SKY/WX    TMP DP  RH WIND       PRES   REMARKS
NASHVILLE      PTSUNNY   88  68  51 SW10      29.72S HX  91           
DICKSON        PTCLDY    86  70  58 SW13G22   29.71S HX  90           
PORTLAND       MOSUNNY   86  70  58 SW12      29.71S HX  90           
CLARKSVILLE    FAIR      84  71  65 SW6       29.69S                  
LEBANON        PTCLDY    86  72  62 SW10      29.69F HX  92           
SMYRNA         FAIR      87  71  58 S8        29.73S HX  93           
MURFREESBORO   CLEAR     88  68  51 SW10G17   29.70F HX  91           
COOKEVILLE     MOSUNNY   84  70  61 SW13      29.75F                  
LIVINGSTON     CLEAR     75  70  83 SW3       29.76F                  
GALLATIN       CLEAR     86  72  62 VRB6      29.73S HX  92           
CROSSVILLE     FAIR      77  69  76 W7        29.81F                  
ROCKWOOD       MOCLDY    75  70  83 CALM      29.79S                  
$$

TNZ061-075-076-078-094-096-097-192300-
SOUTH MIDDLE TENNESSEE
  
CITY           SKY/WX    TMP DP  RH WIND       PRES   REMARKS
LAWRENCEBURG   PTCLDY    86  70  58 SW8G15    29.75F HX  90           
LEWISBURG      MOCLDY    84  70  61 SW7G14    29.73S                  
FAYETTEVILLE   MOSUNNY   86  70  58 SW9G16    29.76F HX  90           
TULLAHOMA      SUNNY     84  70  61 S8        29.75F                  
WINCHESTER     MOSUNNY   84  70  61 SW12      29.76F                  
MCMINNVILLE    PTSUNNY   84  70  61 SW9G15    29.75F                  
COLUMBIA       MOSUNNY   86  70  58 SW12      29.71F HX  90           
SHELBYVILLE    MOSUNNY   86  70  58 SW13      29.74S HX  90           
$$

TNZ017-018-042-046-047-192300-
NORTHEAST TENNESSEE
  
CITY           SKY/WX    TMP DP  RH WIND       PRES   REMARKS
TRI CITIES     PTSUNNY   80  68  66 S9        29.79F                  
ELIZABETHTON   CLOUDY    79  70  73 VRB5      29.79F                  
GREENEVILLE    PTCLDY    79  68  69 SW7G14    29.80F                  
$$

TNZ012-013-036-069-073-074-192300-
CENTRAL EAST TENNESSEE
  
CITY           SKY/WX    TMP DP  RH WIND       PRES   REMARKS
KNOXVILLE      PTSUNNY   84  69  60 S14       29.74F                  
OAK RIDGE      PTSUNNY   80  69  69 VRB3      29.76F                  
DOWNTOWN KNOXV PTSUNNY   84  72  65 SW6       29.75F                  
GATLINBURG     MOSUNNY   86  70  58 W5        29.76S HX  90           
MORRISTOWN     MOSUNNY   81  70  69 SW9       29.77S                  
JACKSBORO      CLOUDY    81  70  69 S12       29.79S                  
$$

TNZ083-085-099-192300-
SOUTHEAST TENNESSEE
  
CITY           SKY/WX    TMP DP  RH WIND       PRES   REMARKS
CHATTANOOGA    PTSUNNY   89  68  49 S14       29.76F HX  93           
$$

SKY/WX REPORTED AS FAIR MEANS FEW OR NO CLOUDS BELOW
12 THOUSAND FEET.